This is the latest recevied weather packets stored in our database for station/object KC1OEK-13. If no packets are shown the sender has not sent any weather packets the latest 10 day(s).
| Time | Temp. | Humidity | Pressure | Rain* | Wind** | Luminosity | Snow |
|---|---|---|---|---|---|---|---|
| 1787493632 | 19.44° C | 99% | 1012.5 hPa | 4.32 mm | - | 47 W/m² | - |
| 1787493327 | 19.44° C | 99% | 1012.4 hPa | 6.6 mm | - | 41 W/m² | - |
| 1787493023 | 19.44° C | 99% | 1012.6 hPa | 6.6 mm | - | 37 W/m² | - |
| 1787492718 | 19.44° C | 99% | 1012.3 hPa | 6.1 mm | - | 31 W/m² | - |
| 1787492414 | 19.44° C | 99% | 1012.6 hPa | 6.1 mm | - | 24 W/m² | - |
| 1787492109 | 19.44° C | 99% | 1012.8 hPa | 6.1 mm | - | 17 W/m² | - |
| 1787491804 | 19.44° C | 99% | 1012.7 hPa | 6.1 mm | - | 18 W/m² | - |
| 1787491499 | 19.44° C | 99% | 1012.6 hPa | 4.83 mm | - | 24 W/m² | - |
| 1787491195 | 19.44° C | 99% | 1012.5 hPa | 4.83 mm | - | 28 W/m² | - |
| 1787490891 | 19.44° C | 99% | 1012.6 hPa | 4.32 mm | - | 36 W/m² | - |
| 1787490590 | 19.44° C | 99% | 1012.6 hPa | 4.32 mm | - | 23 W/m² | - |
| 1787490285 | 19.44° C | 99% | 1012.8 hPa | 4.32 mm | - | 12 W/m² | - |
| 1787489983 | 19.44° C | 99% | 1012.7 hPa | 6.1 mm | - | 31 W/m² | - |
| 1787489679 | 19.44° C | 99% | 1012.5 hPa | 6.6 mm | - | 29 W/m² | - |
| 1787489375 | 19.44° C | 99% | 1012.5 hPa | 4.83 mm | - | 26 W/m² | - |
| 1787489071 | 19.44° C | 99% | 1013 hPa | 4.83 mm | - | 16 W/m² | - |
| 1787488766 | 19.44° C | 99% | 1013.1 hPa | 4.32 mm | - | 15 W/m² | - |
| 1787488462 | 19.44° C | 99% | 1013.1 hPa | 4.32 mm | - | 16 W/m² | - |
| 1787488160 | 19.44° C | 99% | 1013 hPa | 3.05 mm | - | 20 W/m² | - |
| 1787487859 | 19.44° C | 99% | 1012.9 hPa | 3.05 mm | - | 24 W/m² | - |
| 1787487556 | 19.44° C | 99% | 1012.9 hPa | 4.32 mm | - | 28 W/m² | - |
| 1787487253 | 19.44° C | 99% | 1013.1 hPa | 1.27 mm | - | 26 W/m² | - |
| 1787486948 | 19.44° C | 99% | 1012.9 hPa | 1.78 mm | - | 30 W/m² | - |
| 1787486643 | 19.44° C | 99% | 1013 hPa | 1.78 mm | - | 30 W/m² | - |
| 1787486342 | 19.44° C | 99% | 1012.8 hPa | 0 mm | - | 33 W/m² | - |
* Rain latest hour (hover to see other rain measurements)
** Current wind speed in m/s (hover to see current wind gust speed)